[[{"header":{"parameterUnit":"m.s-1","parameterCategory":1,"la1":30.2992,"la2":30.254,"lo1":-89.0895,"lo2":-89.0443,"dy":0.0025,"dx":0.0025,"nx":19,"ny":19,"refTime":"2026-05-04T09:00:00:Z","depth":0,"parameterNumber":2,"parameterNumberName":"U-component_of_WINDS"},"data":[0,0,0,0.3242,0.3243,0.3254,0.3254,0.3285,0.3285,0,0,0,0,0,0,0,0,0,0,0,0.3248,0.3248,0.3242,0.3243,0.3254,0.3254,0.3285,0.3285,0,0,0,0,0,0,0,0,0,0,0,0.3248,0.3248,0.3249,0.3243,0.3254,0.3254,0.3285,0.3271,0,0,0,0,0,0,0,0,0,0,0.3257,0.3271,0.3248,0.3249,0.3243,0.3254,0.3254,0.327,0.3272,0.3287,0,0.3301,0,0.3294,0.3288,0.3289,0,0,0,0.3237,0.3269,0.3264,0.3249,0.3243,0.3254,0.3247,0.3271,0.3273,0.3289,0.3301,0.3302,0.3294,0.3289,0.3289,0.3391,0.3392,0,0,0.3236,0.3255,0.3263,0.3266,0.3263,0.3247,0.3248,0.3272,0.3287,0.3301,0.3303,0.3295,0.3289,0.3289,0.339,0.3391,0,0,0,0.3238,0.3255,0.3249,0.3265,0.3265,0.3247,0.3248,0.3286,0.3282,0.3303,0.3295,0.3289,0.329,0.3389,0.3391,0.3446,0,0,0,0.3238,0.3256,0.3249,0.3261,0.3265,0.3276,0.3262,0.328,0.3283,0.3295,0.3289,0.329,0.3389,0.339,0.3443,0.347,0,0,0,0.3244,0.3257,0.3261,0.3262,0.3267,0.3275,0.3272,0.328,0.3278,0.3289,0.329,0.3388,0.339,0.344,0.3465,0.3502,0,0,0,0.3257,0.3312,0.3263,0.3321,0.3267,0.3308,0.3272,0.3302,0.3318,0.329,0.3389,0.3391,0.3439,0.3462,0.3499,0.3537,0.3554,0,0,0.3337,0.3323,0.3355,0.3311,0.3366,0.3305,0.3368,0.3365,0.335,0.3379,0.3381,0.3444,0.3464,0.3501,0.3644,0.3658,0,0,0,0.3387,0.3411,0.3421,0.3435,0.3433,0.3433,0.3418,0.3417,0.344,0.3368,0.3466,0.3478,0.3499,0.3516,0.3528,0.3545,0.3399,0.3399,0.3399,0.3529,0.3504,0.3556,0.3532,0.3547,0.3529,0.3539,0.3535,0.3507,0.3531,0.3539,0.3629,0.365,0.3658,0.3676,0.3557,0.3557,0.3557,0.3557,0.3645,0.3674,0.3633,0.3669,0.3643,0.3673,0.3658,0.3637,0.3663,0.3621,0.3638,0.3595,0.3674,0.3689,0.3561,0.3561,0.356,0.356,0.3559,0.3736,0.3745,0.3741,0.3758,0.3774,0.3748,0.3773,0.3748,0.3726,0.3742,0.3749,0.3748,0.3744,0.3747,0.3747,0.3747,0.3748,0.3748,0.3748,0.3832,0.3825,0.3848,0.3848,0.3853,0.3857,0.3839,0.3844,0.3843,0.3823,0.3823,0.3793,0.3686,0.366,0.3753,0.3752,0.3751,0.3751,0.375,0.3959,0.3926,0.3962,0.3967,0.3964,0.3982,0.3949,0.396,0.3961,0.3974,0.394,0.3864,0.3848,0.3839,0.3817,0.3944,0.3944,0.3944,0.3944,0.4036,0.4025,0.4055,0.4064,0.4071,0.4044,0.4086,0.4072,0.4053,0.4052,0.4029,0.3998,0.3989,0.3979,0.3966,0.3945,0.4103,0.4103,0.4103,0.4113,0.4101,0.4141,0.412,0.4115,0.4113,0.4151,0.4165,0.4136,0.4109,0.405,0.4044,0.3993,0.3977,0.3951,0.3932,0.3894,0,0]},{"header":{"parameterUnit":"m.s-1","parameterCategory":1,"la1":30.2992,"la2":30.254,"lo1":-89.0895,"lo2":-89.0443,"dy":0.0025,"dx":0.0025,"nx":19,"ny":19,"refTime":"2026-05-04T09:00:00:Z","depth":0,"parameterNumber":3,"parameterNumberName":"V-component_of_WINDS"},"data":[0,0,0,6.5459,6.5459,6.5458,6.5457,6.5469,6.5469,0,0,0,0,0,0,0,0,0,0,0,6.5468,6.5468,6.5459,6.5459,6.5458,6.5457,6.5469,6.5469,0,0,0,0,0,0,0,0,0,0,0,6.5468,6.5468,6.5469,6.5459,6.5458,6.5457,6.5469,6.5465,0,0,0,0,0,0,0,0,0,0,6.5464,6.548,6.5468,6.5469,6.5459,6.5458,6.5457,6.5465,6.5465,6.5475,0,6.5487,0,6.5478,6.5471,6.5471,0,0,0,6.5453,6.548,6.5472,6.5469,6.546,6.5458,6.5457,6.5465,6.5466,6.5476,6.5487,6.5487,6.5478,6.5471,6.5471,6.5552,6.5553,0,0,6.5453,6.5472,6.5472,6.5473,6.5475,6.5457,6.5457,6.5465,6.5477,6.5487,6.5487,6.5479,6.5471,6.5471,6.5552,6.5552,0,0,0,6.5458,6.5472,6.5464,6.5473,6.5472,6.5457,6.5457,6.5477,6.5473,6.5487,6.5479,6.5471,6.5471,6.5551,6.5552,6.5604,0,0,0,6.5457,6.5475,6.5464,6.5476,6.5472,6.5474,6.5469,6.5472,6.5473,6.5479,6.5471,6.5472,6.555,6.5551,6.5601,6.5624,0,0,0,6.5465,6.5475,6.5478,6.5477,6.5477,6.5474,6.547,6.5472,6.5468,6.5471,6.5472,6.555,6.5551,6.5598,6.562,6.5651,0,0,0,6.5479,6.5523,6.5479,6.5527,6.5477,6.5507,6.547,6.5491,6.5499,6.5471,6.555,6.5552,6.5597,6.5617,6.5649,6.5681,6.5696,0,0,6.5545,6.5532,6.5558,6.5519,6.5562,6.5505,6.5555,6.5545,6.5528,6.5545,6.5547,6.5602,6.562,6.5651,6.5778,6.579,0,0,0,6.5586,6.5605,6.5612,6.5622,6.5616,6.5613,6.5594,6.559,6.5604,6.5541,6.5622,6.5632,6.5649,6.5664,6.5674,6.5688,6.556,6.5559,6.5559,6.5705,6.5683,6.5725,6.5703,6.5713,6.5694,6.57,6.5692,6.5664,6.5684,6.5689,6.5769,6.5786,6.5794,6.5809,6.5705,6.5705,6.5705,6.5705,6.58,6.5823,6.5789,6.5818,6.5794,6.5818,6.5802,6.5783,6.5801,6.5763,6.5777,6.5736,6.5808,6.582,6.5709,6.5708,6.5708,6.5708,6.5707,6.5874,6.5881,6.5878,6.5892,6.5905,6.5881,6.5902,6.5879,6.5858,6.5872,6.5875,6.5874,6.5869,6.5875,6.5876,6.5876,6.5876,6.5876,6.5877,6.5952,6.5947,6.5967,6.5967,6.5972,6.5975,6.5959,6.5962,6.596,6.5942,6.5942,6.5913,6.582,6.5797,6.5881,6.588,6.5879,6.5879,6.5879,6.6054,6.6028,6.6059,6.6064,6.6063,6.6079,6.6051,6.6061,6.6061,6.6072,6.6042,6.5977,6.5961,6.5952,6.5933,6.6047,6.6047,6.6047,6.6047,6.6115,6.6106,6.6134,6.6144,6.6151,6.613,6.6167,6.6156,6.614,6.6138,6.6119,6.6092,6.6084,6.6073,6.6062,6.6043,6.6182,6.6182,6.6182,6.6177,6.6168,6.6202,6.6188,6.6187,6.6187,6.6221,6.6233,6.621,6.6187,6.6137,6.6131,6.6087,6.6074,6.6047,6.603,6.5995,0,0]}]]